#timestamp,LO_Frequency,Hit,StdDev 
1621642215.6,286047007.8,P
1621642235.4,286047009.9,P
1621642255.3,286047010.1,P
1621642275.1,286047008.8,Y
1621642276.0,286047008.8,P
1621642295.8,286046998.7,P
1621642315.7,286046998.5,N
1621642335.5,286046997.0,N
1621642355.3,286046997.4,N
1621642375.2,286046997.7,N
1621642395.0,286046995.7,N
1621642395.9,286046995.7,N
1621642415.8,286046996.1,N
1621642435.6,286046995.5,N
1621642455.4,286046995.8,N
1621642475.3,286046995.5,N
1621642495.1,286046994.9,N
1621642515.8,286046997.1,N
1621642535.7,286046996.5,N
1621642555.5,286047000.7,N
1621642575.4,286047000.7,N
1621642595.2,286047001.2,N
1621642615.0,286046998.7,N
1621642615.9,286046998.7,N
1621642635.8,286046998.2,N
1621642655.6,286046998.6,N
1621642675.4,286046999.3,N
1621642695.3,286047000.3,N
1621642715.1,286046998.7,N
1621642735.9,286046998.7,N
1621642755.7,286047000.6,N
1621642775.5,286047001.1,N
1621642795.4,286046999.1,N
1621642815.2,286046999.6,N
1621642835.0,286046998.3,N
1621642835.9,286046998.3,N
1621642855.8,286046999.5,N
1621642875.6,286046998.7,N
1621642895.5,286046999.7,N
1621642915.3,286047002.1,N
1621642935.1,286046999.8,N
1621642955.9,286047001.9,N
1621642975.7,286046999.8,N
1621642995.5,286047000.3,N
1621643045.4,286047000.5,E
1621643055.3,286046998.2,N
1621643075.2,286046998.8,P
1621643095.0,286047001.0,P
1621643095.9,286047001.0,N
1621643115.8,286046999.0,N
1621643135.6,286047001.0,N
1621643155.4,286046999.3,N
1621643175.3,286046998.3,N
1621643195.1,286046999.4,N
1621643215.8,286046996.6,Y
1621643235.7,286047000.9,P
1621643255.5,286047000.6,N
1621643275.4,286047001.0,N
1621643295.2,286047000.8,N
1621643315.0,286047000.5,N
1621643315.9,286047000.5,N
1621643335.8,286047001.2,N
1621643355.6,286047000.3,N
1621643375.5,286046998.5,Y
1621643395.3,286046998.4,P
1621643415.1,286046998.6,N
1621643435.9,286046999.1,N
1621643455.7,286047000.5,N
1621643475.5,286047002.5,N
1621643495.4,286047002.3,N
1621643515.2,286047000.1,N
1621643535.0,286047000.1,N
1621643536.0,286047000.1,N
1621643555.8,286047002.6,N
1621643575.6,286047004.0,N
1621643595.5,286047003.5,N
1621643615.3,286047004.4,N
1621643635.1,286047003.8,N
1621643655.9,286047003.6,N
1621643675.7,286047003.6,N
1621643695.6,286047001.6,N
1621643715.4,286047001.7,N
1621643735.2,286047000.1,N
1621643755.1,286047002.4,N
1621643756.0,286047002.4,N
1621643775.8,286047001.9,N
1621643795.7,286047001.9,N
1621643815.5,286047002.4,N
1621643835.3,286046999.9,N
1621643855.2,286047000.9,N
1621643875.0,286047002.3,N
1621643875.9,286047002.3,N
1621643895.8,286046999.7,N
1621643915.6,286047002.8,N
1621643935.4,286046999.9,N
1621643955.3,286046999.9,N
1621643975.1,286047002.1,N
1621643995.8,286047005.8,Y
1621644015.7,286047004.4,P
1621644035.5,286047001.3,N
1621644055.4,286047003.2,N
1621644075.2,286047003.4,N
1621644095.0,286047003.7,Y
1621644095.9,286047003.7,P
1621644115.8,286047001.9,P
1621644135.6,286046999.7,N
1621644155.4,286047000.7,N
1621644175.3,286046999.9,N
1621644195.1,286047000.7,N
1621644215.9,286046998.5,N
1621644235.7,286047000.4,N
1621644255.5,286046998.3,N
1621644275.4,286047000.0,N
1621644295.2,286046999.9,N
1621644315.0,286047002.7,N
1621644315.9,286047002.7,N
1621644335.8,286046999.7,N
1621644355.6,286047002.2,N
1621644375.5,286047002.2,N
1621644395.3,286047002.0,N
1621644415.1,286046999.7,N
1621644435.9,286047002.4,N
1621644455.7,286047001.5,N
1621644475.5,286047001.8,N
1621644495.4,286047004.4,Y
1621644515.2,286047004.2,P
1621644535.1,286047004.0,N
1621644536.0,286047004.0,N
1621644555.8,286047004.1,Y
1621644575.6,286046998.4,P
1621644595.5,286047001.2,N
1621644615.3,286047001.4,N
1621644635.2,286047002.0,N
1621644655.9,286047002.6,N
1621644675.7,286047000.7,N
1621644695.6,286046998.3,N
1621644715.4,286047001.6,N
1621644735.2,286047002.6,N
1621644755.1,286046999.8,N
1621644756.0,286046999.8,N
1621644775.8,286047001.5,N
1621644795.7,286047001.7,N
1621644815.5,286047001.8,N
1621644835.3,286047002.0,N
1621644855.2,286047003.2,N
1621644875.0,286047005.5,Y
1621644875.9,286047005.5,P
1621644895.7,286047005.8,N
1621644915.6,286047004.0,N
1621644935.4,286047004.1,N
1621644955